Time,TemperatureF,DewpointF,PressureIn,WindDirection,WindDirectionDegrees,WindSpeedMPH,WindSpeedGustMPH,Humidity,HourlyPrecipIn,Conditions,Clouds,dailyrainin,SoftwareType,DateUTC
2013-10-02 00:14:00,47.0,42.4,30.10,East,90,0.0,0.0,84,0.00,,,-99.99,Weather View 32 v60,2013-10-02 05:14:00,
2013-10-02 00:29:00,47.0,42.4,30.09,East,90,0.0,0.0,84,0.00,,,-99.99,Weather View 32 v60,2013-10-02 05:29:00,
2013-10-02 00:43:00,47.0,42.4,30.09,East,90,0.0,0.0,84,0.00,,,-99.99,Weather View 32 v60,2013-10-02 05:43:00,
2013-10-02 00:44:00,47.0,42.1,30.09,East,90,0.0,0.0,83,0.00,,,-99.99,Weather View 32 v60,2013-10-02 05:44:00,
2013-10-02 00:59:00,46.0,41.4,30.10,East,90,0.0,0.0,84,0.00,,,-99.99,Weather View 32 v60,2013-10-02 05:59:00,
2013-10-02 01:14:00,46.0,40.8,30.10,East,90,0.0,0.0,82,0.00,,,-99.99,Weather View 32 v60,2013-10-02 06:14:00,
2013-10-02 01:29:00,46.0,40.8,30.10,East,90,0.0,0.0,82,0.00,,,-99.99,Weather View 32 v60,2013-10-02 06:29:00,
2013-10-02 01:43:00,46.0,40.8,30.10,East,90,0.0,0.0,82,0.00,,,-99.99,Weather View 32 v60,2013-10-02 06:43:00,
2013-10-02 01:59:00,45.0,39.5,30.10,East,90,0.0,0.0,81,0.00,,,-99.99,Weather View 32 v60,2013-10-02 06:59:00,
2013-10-02 02:14:00,45.0,39.5,30.10,East,90,0.0,0.0,81,0.00,,,-99.99,Weather View 32 v60,2013-10-02 07:14:00,
2013-10-02 02:29:00,45.0,39.5,30.11,East,90,0.0,0.0,81,0.00,,,-99.99,Weather View 32 v60,2013-10-02 07:29:00,
2013-10-02 02:44:00,45.0,39.5,30.11,East,90,0.0,0.0,81,0.00,,,-99.99,Weather View 32 v60,2013-10-02 07:44:00,
2013-10-02 02:59:00,45.0,39.2,30.11,East,90,0.0,0.0,80,0.00,,,-99.99,Weather View 32 v60,2013-10-02 07:59:00,
2013-10-02 03:14:00,45.0,39.8,30.10,East,90,0.0,0.0,82,0.00,,,-99.99,Weather View 32 v60,2013-10-02 08:14:00,
2013-10-02 03:29:00,45.0,39.8,30.10,East,90,0.0,0.0,82,0.00,,,-99.99,Weather View 32 v60,2013-10-02 08:29:00,
2013-10-02 03:44:00,45.0,39.8,30.10,East,90,0.0,0.0,82,0.00,,,-99.99,Weather View 32 v60,2013-10-02 08:44:00,
2013-10-02 03:59:00,45.0,40.1,30.10,East,90,0.0,0.0,83,0.00,,,-99.99,Weather View 32 v60,2013-10-02 08:59:00,
2013-10-02 04:14:00,45.0,40.1,30.10,East,90,0.0,0.0,83,0.00,,,-99.99,Weather View 32 v60,2013-10-02 09:14:00,
2013-10-02 04:29:00,45.0,40.5,30.10,East,90,0.0,0.0,84,0.00,,,-99.99,Weather View 32 v60,2013-10-02 09:29:00,
2013-10-02 04:44:00,46.0,42.0,30.09,East,90,0.0,0.0,86,0.00,,,-99.99,Weather View 32 v60,2013-10-02 09:44:00,
2013-10-02 04:59:00,46.0,42.3,30.09,East,90,0.0,0.0,87,0.00,,,-99.99,Weather View 32 v60,2013-10-02 09:59:00,
2013-10-02 05:14:00,48.0,42.8,30.08,East,90,0.0,0.0,82,0.00,,,-99.99,Weather View 32 v60,2013-10-02 10:14:00,
2013-10-02 05:29:00,49.0,42.1,30.08,NNW,337,0.0,0.0,77,0.00,,,-99.99,Weather View 32 v60,2013-10-02 10:29:00,
2013-10-02 05:44:00,50.0,42.4,30.07,North,360,0.0,0.0,75,0.00,,,-99.99,Weather View 32 v60,2013-10-02 10:44:00,
2013-10-02 05:59:00,51.0,42.6,30.06,NNW,337,0.0,0.0,73,0.00,,,-99.99,Weather View 32 v60,2013-10-02 10:59:00,
2013-10-02 06:14:00,52.0,43.2,30.06,NNW,337,0.0,0.0,72,0.00,,,-99.99,Weather View 32 v60,2013-10-02 11:14:00,
2013-10-02 06:29:00,52.0,43.2,30.06,NNW,337,0.0,0.0,72,0.00,,,-99.99,Weather View 32 v60,2013-10-02 11:29:00,
2013-10-02 06:44:00,53.0,43.5,30.05,NNE,22,0.0,0.0,70,0.00,,,-99.99,Weather View 32 v60,2013-10-02 11:44:00,
2013-10-02 06:59:00,53.0,43.5,30.04,NE,45,0.0,0.0,70,0.00,,,-99.99,Weather View 32 v60,2013-10-02 11:59:00,
2013-10-02 07:14:00,53.0,42.7,30.05,NNE,22,0.0,0.0,68,0.00,,,-99.99,Weather View 32 v60,2013-10-02 12:14:00,
2013-10-02 07:29:00,54.0,43.3,30.04,NNE,22,0.0,0.0,67,0.00,,,-99.99,Weather View 32 v60,2013-10-02 12:29:00,
2013-10-02 07:44:00,55.0,43.8,30.04,NNE,22,0.0,0.0,66,0.00,,,-99.99,Weather View 32 v60,2013-10-02 12:44:00,
2013-10-02 07:59:00,56.0,44.4,30.03,NNE,22,0.0,0.0,65,0.00,,,-99.99,Weather View 32 v60,2013-10-02 12:59:00,
2013-10-02 08:14:00,58.0,45.4,30.02,NNW,337,0.0,0.0,63,0.00,,,-99.99,Weather View 32 v60,2013-10-02 13:14:00,
2013-10-02 08:29:00,59.0,45.5,30.02,ESE,112,0.0,0.0,61,0.00,,,-99.99,Weather View 32 v60,2013-10-02 13:29:00,
2013-10-02 08:44:00,60.0,47.8,30.02,SE,135,0.0,3.0,64,0.00,,,-99.99,Weather View 32 v60,2013-10-02 13:44:00,
2013-10-02 08:59:00,61.0,48.7,30.01,SSE,157,0.0,3.0,64,0.00,,,-99.99,Weather View 32 v60,2013-10-02 13:59:00,
2013-10-02 09:14:00,62.0,50.1,30.01,NNE,22,0.0,4.0,65,0.00,,,-99.99,Weather View 32 v60,2013-10-02 14:14:00,
2013-10-02 09:29:00,63.0,51.0,30.00,ESE,112,1.0,4.0,65,0.00,,,-99.99,Weather View 32 v60,2013-10-02 14:29:00,
2013-10-02 09:44:00,66.0,53.4,29.99,SE,135,0.0,8.0,64,0.00,,,-99.99,Weather View 32 v60,2013-10-02 14:44:00,
2013-10-02 09:59:00,68.0,54.9,29.98,ENE,67,2.0,8.0,63,0.00,,,-99.99,Weather View 32 v60,2013-10-02 14:59:00,
2013-10-02 10:14:00,69.0,55.0,29.97,ESE,112,3.0,8.0,61,0.00,,,-99.99,Weather View 32 v60,2013-10-02 15:14:00,
2013-10-02 10:29:00,71.0,56.8,29.96,East,90,6.0,8.0,61,0.00,,,-99.99,Weather View 32 v60,2013-10-02 15:29:00,
2013-10-02 10:44:00,73.0,58.7,29.95,NNW,337,0.0,10.0,61,0.00,,,-99.99,Weather View 32 v60,2013-10-02 15:44:00,
2013-10-02 10:49:00,73.0,58.7,29.95,NNW,337,0.0,10.0,61,0.00,,,-99.99,Weather View 32 v60,2013-10-02 15:49:00,
2013-10-02 10:59:00,73.0,58.7,29.95,South,180,0.0,10.0,61,0.00,,,-99.99,Weather View 32 v60,2013-10-02 15:59:00,
2013-10-02 11:14:00,74.0,60.6,29.94,South,180,0.0,10.0,63,0.00,,,-99.99,Weather View 32 v60,2013-10-02 16:14:00,
2013-10-02 11:29:00,74.0,61.9,29.94,WNW,292,0.0,10.0,66,0.00,,,-99.99,Weather View 32 v60,2013-10-02 16:29:00,
2013-10-02 11:44:00,74.0,62.3,29.93,SE,135,0.0,8.0,67,0.00,,,-99.99,Weather View 32 v60,2013-10-02 16:44:00,
2013-10-02 11:49:00,74.0,62.3,29.93,SE,135,0.0,8.0,67,0.00,,,-99.99,Weather View 32 v60,2013-10-02 16:49:00,
2013-10-02 11:59:00,75.0,62.8,29.93,ENE,67,0.0,8.0,66,0.00,,,-99.99,Weather View 32 v60,2013-10-02 16:59:00,
2013-10-02 12:14:00,77.0,63.8,29.91,East,90,4.0,12.0,64,0.00,,,-99.99,Weather View 32 v60,2013-10-02 17:14:00,
2013-10-02 12:29:00,78.0,64.3,29.90,SW,225,0.0,12.0,63,0.00,,,-99.99,Weather View 32 v60,2013-10-02 17:29:00,
2013-10-02 12:44:00,77.0,64.3,29.90,WNW,292,0.0,12.0,65,0.00,,,-99.99,Weather View 32 v60,2013-10-02 17:44:00,
2013-10-02 12:50:00,77.0,64.3,29.90,WNW,292,0.0,12.0,65,0.00,,,-99.99,Weather View 32 v60,2013-10-02 17:50:00,
2013-10-02 12:59:00,79.0,63.9,29.89,SSW,202,0.0,12.0,60,0.00,,,-99.99,Weather View 32 v60,2013-10-02 17:59:00,
2013-10-02 13:14:00,78.0,64.3,29.89,West,270,0.0,10.0,63,0.00,,,-99.99,Weather View 32 v60,2013-10-02 18:14:00,
2013-10-02 13:29:00,80.0,65.3,29.88,West,270,0.0,10.0,61,0.00,,,-99.99,Weather View 32 v60,2013-10-02 18:29:00,
2013-10-02 13:44:00,79.0,64.8,29.87,SW,225,0.0,10.0,62,0.00,,,-99.99,Weather View 32 v60,2013-10-02 18:44:00,
2013-10-02 13:51:00,79.0,64.8,29.87,SW,225,0.0,10.0,62,0.00,,,-99.99,Weather View 32 v60,2013-10-02 18:51:00,
2013-10-02 13:59:00,80.0,65.3,29.86,SSW,202,0.0,10.0,61,0.00,,,-99.99,Weather View 32 v60,2013-10-02 18:59:00,
2013-10-02 14:14:00,81.0,66.2,29.86,WSW,247,2.0,10.0,61,0.00,,,-99.99,Weather View 32 v60,2013-10-02 19:14:00,
2013-10-02 14:29:00,83.0,65.1,29.84,South,180,0.0,10.0,55,0.00,,,-99.99,Weather View 32 v60,2013-10-02 19:29:00,
2013-10-02 14:44:00,82.0,63.7,29.84,SW,225,0.0,13.0,54,0.00,,,-99.99,Weather View 32 v60,2013-10-02 19:44:00,
2013-10-02 14:51:00,82.0,63.7,29.84,SW,225,0.0,13.0,54,0.00,,,-99.99,Weather View 32 v60,2013-10-02 19:51:00,
2013-10-02 14:59:00,84.0,63.9,29.82,South,180,2.0,13.0,51,0.00,,,-99.99,Weather View 32 v60,2013-10-02 19:59:00,
2013-10-02 15:14:00,83.0,64.6,29.83,SW,225,2.0,13.0,54,0.00,,,-99.99,Weather View 32 v60,2013-10-02 20:14:00,
2013-10-02 15:29:00,83.0,64.6,29.82,North,360,1.0,13.0,54,0.00,,,-99.99,Weather View 32 v60,2013-10-02 20:29:00,
2013-10-02 15:44:00,82.0,63.1,29.81,SSW,202,3.0,13.0,53,0.00,,,-99.99,Weather View 32 v60,2013-10-02 20:44:00,
2013-10-02 15:52:00,82.0,63.1,29.81,SSW,202,3.0,13.0,53,0.00,,,-99.99,Weather View 32 v60,2013-10-02 20:52:00,
2013-10-02 15:59:00,81.0,62.7,29.81,SW,225,1.0,17.0,54,0.00,,,-99.99,Weather View 32 v60,2013-10-02 20:59:00,
2013-10-02 16:14:00,81.0,63.2,29.81,SSW,202,0.0,17.0,55,0.00,,,-99.99,Weather View 32 v60,2013-10-02 21:14:00,
2013-10-02 16:29:00,81.0,63.8,29.81,ESE,112,8.0,17.0,56,0.00,,,-99.99,Weather View 32 v60,2013-10-02 21:29:00,
2013-10-02 16:44:00,80.0,62.8,29.81,South,180,7.0,17.0,56,0.00,,,-99.99,Weather View 32 v60,2013-10-02 21:44:00,
2013-10-02 16:52:00,80.0,62.8,29.81,South,180,7.0,17.0,56,0.00,,,-99.99,Weather View 32 v60,2013-10-02 21:52:00,
2013-10-02 16:59:00,79.0,63.9,29.82,SSW,202,0.0,17.0,60,0.00,,,-99.99,Weather View 32 v60,2013-10-02 21:59:00,
2013-10-02 17:14:00,78.0,64.8,29.83,West,270,0.0,17.0,64,0.00,,,-99.99,Weather View 32 v60,2013-10-02 22:14:00,
2013-10-02 17:29:00,77.0,64.7,29.83,West,270,2.0,17.0,66,0.00,,,-99.99,Weather View 32 v60,2013-10-02 22:29:00,
2013-10-02 17:44:00,74.0,66.7,29.85,SSW,202,0.0,14.0,78,0.01,,,-99.99,Weather View 32 v60,2013-10-02 22:44:00,
2013-10-02 17:53:00,74.0,66.7,29.85,SSW,202,0.0,14.0,78,0.01,,,-99.99,Weather View 32 v60,2013-10-02 22:53:00,
2013-10-02 17:59:00,70.0,63.9,29.87,WSW,247,6.0,15.0,81,0.02,,,-99.99,Weather View 32 v60,2013-10-02 22:59:00,
2013-10-02 18:14:00,68.0,62.6,29.86,ESE,112,0.0,15.0,83,0.02,,,-99.99,Weather View 32 v60,2013-10-02 23:14:00,
2013-10-02 18:29:00,68.0,62.3,29.87,West,270,0.0,15.0,82,0.02,,,-99.99,Weather View 32 v60,2013-10-02 23:29:00,
2013-10-02 18:44:00,68.0,60.9,29.87,West,270,0.0,15.0,78,0.01,,,-99.99,Weather View 32 v60,2013-10-02 23:44:00,
2013-10-02 18:54:00,68.0,60.9,29.87,West,270,0.0,15.0,78,0.01,,,-99.99,Weather View 32 v60,2013-10-02 23:54:00,
2013-10-02 18:59:00,67.0,59.9,29.87,West,270,0.0,6.0,78,0.00,,,-99.99,Weather View 32 v60,2013-10-02 23:59:00,
2013-10-02 19:14:00,67.0,58.4,29.86,West,270,0.0,0.0,74,0.00,,,-99.99,Weather View 32 v60,2013-10-03 00:14:00,
2013-10-02 19:29:00,67.0,57.6,29.86,WSW,247,0.0,0.0,72,0.00,,,-99.99,Weather View 32 v60,2013-10-03 00:29:00,
2013-10-02 19:44:00,67.0,58.4,29.87,WSW,247,5.0,5.0,74,0.00,,,-99.99,Weather View 32 v60,2013-10-03 00:44:00,
2013-10-02 19:59:00,68.0,61.6,29.86,SW,225,0.0,6.0,80,0.00,,,-99.99,Weather View 32 v60,2013-10-03 00:59:00,
2013-10-02 20:14:00,68.0,63.0,29.87,WSW,247,7.0,11.0,84,0.00,,,-99.99,Weather View 32 v60,2013-10-03 01:14:00,
2013-10-02 20:29:00,69.0,60.3,29.87,West,270,1.0,11.0,74,0.01,,,-99.99,Weather View 32 v60,2013-10-03 01:29:00,
2013-10-02 20:44:00,68.0,59.0,29.88,ESE,112,0.0,15.0,73,0.01,,,-99.99,Weather View 32 v60,2013-10-03 01:44:00,
2013-10-02 20:55:00,68.0,59.0,29.88,ESE,112,0.0,15.0,73,0.01,,,-99.99,Weather View 32 v60,2013-10-03 01:55:00,
2013-10-02 21:14:00,65.0,60.4,29.90,West,270,0.0,15.0,85,0.03,,,-99.99,Weather View 32 v60,2013-10-03 02:14:00,
2013-10-02 21:29:00,63.0,57.4,29.91,WNW,292,0.0,15.0,82,0.08,,,-99.99,Weather View 32 v60,2013-10-03 02:29:00,
2013-10-02 21:44:00,63.0,56.7,29.91,WSW,247,0.0,8.0,80,0.10,,,-99.99,Weather View 32 v60,2013-10-03 02:44:00,
2013-10-02 21:55:00,63.0,56.7,29.91,WSW,247,0.0,8.0,80,0.10,,,-99.99,Weather View 32 v60,2013-10-03 02:55:00,
2013-10-02 22:14:00,62.0,55.7,29.89,SW,225,0.0,8.0,80,0.09,,,-99.99,Weather View 32 v60,2013-10-03 03:14:00,
2013-10-02 22:29:00,62.0,54.0,29.89,WNW,292,0.0,4.0,75,0.03,,,-99.99,Weather View 32 v60,2013-10-03 03:29:00,
2013-10-02 22:44:00,63.0,55.3,29.91,SE,135,1.0,13.0,76,0.01,,,-99.99,Weather View 32 v60,2013-10-03 03:44:00,
2013-10-02 22:56:00,63.0,55.3,29.91,SE,135,1.0,13.0,76,0.01,,,-99.99,Weather View 32 v60,2013-10-03 03:56:00,
2013-10-02 23:14:00,63.0,54.9,29.92,SW,225,0.0,13.0,75,0.00,,,-99.99,Weather View 32 v60,2013-10-03 04:14:00,
2013-10-02 23:29:00,62.0,53.6,29.93,SW,225,0.0,13.0,74,0.00,,,-99.99,Weather View 32 v60,2013-10-03 04:29:00,
2013-10-02 23:44:00,63.0,53.8,29.92,SW,225,0.0,7.0,72,0.00,,,-99.99,Weather View 32 v60,2013-10-03 04:44:00,
2013-10-02 23:56:00,63.0,53.8,29.92,SW,225,0.0,7.0,72,0.00,,,-99.99,Weather View 32 v60,2013-10-03 04:56:00,
2013-10-02 23:59:00,63.0,53.4,29.92,ESE,112,0.0,4.0,71,0.00,,,-99.99,Weather View 32 v60,2013-10-03 04:59:00,